Time,TemperatureF,DewpointF,PressureIn,WindDirection,WindDirectionDegrees,WindSpeedMPH,WindSpeedGustMPH,Humidity,HourlyPrecipIn,Conditions,Clouds,dailyrainin,SoftwareType,DateUTC
2013-04-09 00:03:00,66.0,63.0,30.15,East,90,0.0,0.0,91,0.00,,,0.00,,2013-04-09 04:03:00,
2013-04-09 00:13:00,66.0,63.0,30.15,East,90,0.0,0.0,91,0.00,,,0.00,,2013-04-09 04:13:00,
2013-04-09 00:23:00,66.0,64.0,30.15,East,90,0.0,0.0,92,0.00,,,0.00,,2013-04-09 04:23:00,
2013-04-09 00:32:00,66.0,64.0,30.15,East,90,0.0,0.0,93,0.00,,,0.00,,2013-04-09 04:32:00,
2013-04-09 00:42:00,66.0,64.0,30.15,East,90,0.0,0.0,93,0.00,,,0.00,,2013-04-09 04:42:00,
2013-04-09 00:53:00,66.0,64.0,30.15,East,90,0.0,0.0,93,0.00,,,0.00,,2013-04-09 04:53:00,
2013-04-09 01:02:00,65.0,63.0,30.15,East,90,0.0,0.0,93,0.00,,,0.00,,2013-04-09 05:02:00,
2013-04-09 01:12:00,65.0,63.0,30.14,East,90,0.0,0.0,94,0.00,,,0.00,,2013-04-09 05:12:00,
2013-04-09 01:22:00,65.0,63.0,30.14,East,90,0.0,0.0,94,0.00,,,0.00,,2013-04-09 05:22:00,
2013-04-09 01:32:00,65.0,64.0,30.13,East,90,0.0,0.0,95,0.00,,,0.00,,2013-04-09 05:32:00,
2013-04-09 01:43:00,64.0,63.0,30.13,East,90,0.0,0.0,95,0.00,,,0.00,,2013-04-09 05:43:00,
2013-04-09 01:52:00,64.0,63.0,30.13,East,90,0.0,0.0,95,0.00,,,0.00,,2013-04-09 05:52:00,
2013-04-09 02:02:00,64.0,63.0,30.13,East,90,0.0,0.0,95,0.00,,,0.00,,2013-04-09 06:02:00,
2013-04-09 02:12:00,64.0,63.0,30.13,East,90,0.0,0.0,96,0.00,,,0.00,,2013-04-09 06:12:00,
2013-04-09 02:22:00,64.0,63.0,30.13,East,90,0.0,0.0,96,0.00,,,0.00,,2013-04-09 06:22:00,
2013-04-09 02:32:00,64.0,63.0,30.12,East,90,0.0,0.0,96,0.00,,,0.00,,2013-04-09 06:32:00,
2013-04-09 02:42:00,64.0,63.0,30.12,East,90,0.0,0.0,96,0.00,,,0.00,,2013-04-09 06:42:00,
2013-04-09 02:52:00,63.0,62.0,30.11,East,90,0.0,0.0,96,0.00,,,0.00,,2013-04-09 06:52:00,
2013-04-09 03:02:00,63.0,62.0,30.11,East,90,0.0,0.0,96,0.00,,,0.00,,2013-04-09 07:02:00,
2013-04-09 03:13:00,63.0,62.0,30.11,East,90,0.0,0.0,96,0.00,,,0.00,,2013-04-09 07:13:00,
2013-04-09 03:22:00,63.0,62.0,30.10,East,90,0.0,0.0,97,0.00,,,0.00,,2013-04-09 07:22:00,
2013-04-09 03:32:00,63.0,62.0,30.09,East,90,0.0,0.0,97,0.00,,,0.00,,2013-04-09 07:32:00,
2013-04-09 03:42:00,63.0,62.0,30.09,East,90,0.0,0.0,97,0.00,,,0.00,,2013-04-09 07:42:00,
2013-04-09 03:53:00,63.0,62.0,30.09,East,90,0.0,0.0,97,0.00,,,0.00,,2013-04-09 07:53:00,
2013-04-09 04:03:00,63.0,62.0,30.09,East,90,0.0,0.0,97,0.00,,,0.00,,2013-04-09 08:03:00,
2013-04-09 04:12:00,63.0,62.0,30.09,East,90,0.0,0.0,97,0.00,,,0.00,,2013-04-09 08:12:00,
2013-04-09 04:22:00,64.0,63.0,30.09,East,90,0.0,0.0,98,0.00,,,0.00,,2013-04-09 08:22:00,
2013-04-09 04:32:00,64.0,63.0,30.09,East,90,0.0,0.0,98,0.00,,,0.00,,2013-04-09 08:32:00,
2013-04-09 04:42:00,64.0,63.0,30.09,East,90,0.0,0.0,98,0.00,,,0.00,,2013-04-09 08:42:00,
2013-04-09 04:52:00,64.0,63.0,30.09,East,90,0.0,0.0,97,0.00,,,0.00,,2013-04-09 08:52:00,
2013-04-09 05:02:00,64.0,63.0,30.09,East,90,0.0,0.0,97,0.00,,,0.00,,2013-04-09 09:02:00,
2013-04-09 05:12:00,64.0,63.0,30.10,East,90,0.0,0.0,97,0.00,,,0.00,,2013-04-09 09:12:00,
2013-04-09 05:22:00,64.0,63.0,30.10,East,90,0.0,0.0,97,0.00,,,0.00,,2013-04-09 09:22:00,
2013-04-09 05:33:00,64.0,63.0,30.10,East,90,0.0,0.0,98,0.00,,,0.00,,2013-04-09 09:33:00,
2013-04-09 05:43:00,64.0,63.0,30.10,East,90,0.0,0.0,98,0.00,,,0.00,,2013-04-09 09:43:00,
2013-04-09 05:53:00,64.0,63.0,30.10,East,90,0.0,0.0,98,0.00,,,0.00,,2013-04-09 09:53:00,
2013-04-09 06:03:00,64.0,63.0,30.10,East,90,0.0,0.0,98,0.00,,,0.00,,2013-04-09 10:03:00,
2013-04-09 06:13:00,64.0,63.0,30.10,East,90,0.0,0.0,98,0.00,,,0.00,,2013-04-09 10:13:00,
2013-04-09 06:23:00,64.0,63.0,30.11,East,90,0.0,0.0,98,0.00,,,0.00,,2013-04-09 10:23:00,
2013-04-09 06:33:00,64.0,63.0,30.11,East,90,0.0,0.0,98,0.00,,,0.00,,2013-04-09 10:33:00,
2013-04-09 06:43:00,64.0,63.0,30.11,East,90,0.0,0.0,98,0.00,,,0.00,,2013-04-09 10:43:00,
2013-04-09 06:53:00,64.0,63.0,30.11,East,90,0.0,0.0,98,0.00,,,0.00,,2013-04-09 10:53:00,
2013-04-09 07:02:00,64.0,63.0,30.12,East,90,0.0,0.0,98,0.00,,,0.00,,2013-04-09 11:02:00,
2013-04-09 07:12:00,64.0,63.0,30.12,East,90,0.0,0.0,98,0.00,,,0.00,,2013-04-09 11:12:00,
2013-04-09 07:22:00,64.0,63.0,30.12,East,90,0.0,0.0,98,0.00,,,0.00,,2013-04-09 11:22:00,
2013-04-09 07:32:00,64.0,63.0,30.13,East,90,0.0,0.0,98,0.00,,,0.00,,2013-04-09 11:32:00,
2013-04-09 07:42:00,64.0,63.0,30.13,East,90,0.0,0.0,98,0.00,,,0.00,,2013-04-09 11:42:00,
2013-04-09 07:52:00,64.0,63.0,30.13,East,90,0.0,0.0,98,0.00,,,0.00,,2013-04-09 11:52:00,
2013-04-09 08:02:00,64.0,63.0,30.13,East,90,0.0,0.0,98,0.00,,,0.00,,2013-04-09 12:02:00,
2013-04-09 08:12:00,64.0,63.0,30.13,East,90,0.0,0.0,98,0.00,,,0.00,,2013-04-09 12:12:00,
2013-04-09 08:22:00,65.0,65.0,30.14,East,90,0.0,0.0,99,0.00,,,0.00,,2013-04-09 12:22:00,
2013-04-09 08:32:00,66.0,66.0,30.14,East,90,0.0,0.0,99,0.00,,,0.00,,2013-04-09 12:32:00,
2013-04-09 08:42:00,66.0,66.0,30.14,East,90,0.0,0.0,99,0.00,,,0.00,,2013-04-09 12:42:00,
2013-04-09 08:53:00,67.0,67.0,30.15,SE,139,0.0,1.0,99,0.00,,,0.00,,2013-04-09 12:53:00,
2013-04-09 09:03:00,68.0,67.0,30.15,ESE,114,0.0,1.0,98,0.00,,,0.00,,2013-04-09 13:03:00,
2013-04-09 09:12:00,68.0,67.0,30.15,ESE,114,0.0,1.0,98,0.00,,,0.00,,2013-04-09 13:12:00,
2013-04-09 09:23:00,72.0,68.0,30.16,ESE,118,0.0,2.0,86,0.00,,,0.00,,2013-04-09 13:23:00,
2013-04-09 09:33:00,74.0,68.0,30.16,East,86,0.0,2.0,81,0.00,,,0.00,,2013-04-09 13:33:00,
2013-04-09 09:43:00,74.0,68.0,30.16,East,86,0.0,2.0,81,0.00,,,0.00,,2013-04-09 13:43:00,
2013-04-09 09:53:00,75.0,67.0,30.16,East,97,1.0,5.0,76,0.00,,,0.00,,2013-04-09 13:53:00,
2013-04-09 10:03:00,76.0,67.0,30.17,East,99,1.0,6.0,75,0.00,,,0.00,,2013-04-09 14:03:00,
2013-04-09 10:12:00,76.0,67.0,30.17,East,99,1.0,6.0,75,0.00,,,0.00,,2013-04-09 14:12:00,
2013-04-09 10:22:00,76.0,67.0,30.17,ESE,106,1.0,3.0,75,0.00,,,0.00,,2013-04-09 14:22:00,
2013-04-09 10:32:00,76.0,67.0,30.18,East,79,1.0,4.0,75,0.00,,,0.00,,2013-04-09 14:32:00,
2013-04-09 10:42:00,76.0,67.0,30.18,East,79,1.0,4.0,75,0.00,,,0.00,,2013-04-09 14:42:00,
2013-04-09 10:52:00,77.0,67.0,30.18,ESE,107,1.0,4.0,72,0.00,,,0.00,,2013-04-09 14:52:00,
2013-04-09 11:02:00,78.0,67.0,30.18,ESE,105,1.0,4.0,70,0.00,,,0.00,,2013-04-09 15:02:00,
2013-04-09 11:13:00,78.0,67.0,30.18,ESE,105,1.0,4.0,70,0.00,,,0.00,,2013-04-09 15:13:00,
2013-04-09 11:23:00,78.0,67.0,30.19,ENE,78,1.0,4.0,68,0.00,,,0.00,,2013-04-09 15:23:00,
2013-04-09 11:33:00,79.0,68.0,30.19,ESE,117,1.0,5.0,68,0.00,,,0.00,,2013-04-09 15:33:00,
2013-04-09 11:43:00,79.0,68.0,30.19,ESE,117,1.0,5.0,68,0.00,,,0.00,,2013-04-09 15:43:00,
2013-04-09 11:54:00,79.0,67.0,30.19,East,101,1.0,4.0,66,0.00,,,0.00,,2013-04-09 15:54:00,
2013-04-09 12:03:00,80.0,66.0,30.19,East,96,1.0,3.0,63,0.00,,,0.00,,2013-04-09 16:03:00,
2013-04-09 12:13:00,80.0,66.0,30.19,East,96,1.0,3.0,63,0.00,,,0.00,,2013-04-09 16:13:00,
2013-04-09 12:23:00,80.0,67.0,30.19,East,93,2.0,6.0,64,0.00,,,0.00,,2013-04-09 16:23:00,
2013-04-09 12:33:00,80.0,67.0,30.19,ENE,76,1.0,5.0,65,0.00,,,0.00,,2013-04-09 16:33:00,
2013-04-09 12:42:00,80.0,67.0,30.19,ENE,76,1.0,5.0,65,0.00,,,0.00,,2013-04-09 16:42:00,
2013-04-09 12:54:00,81.0,67.0,30.18,SE,135,1.0,7.0,63,0.00,,,0.00,,2013-04-09 16:54:00,
2013-04-09 13:02:00,81.0,67.0,30.18,ENE,69,2.0,7.0,63,0.00,,,0.00,,2013-04-09 17:02:00,
2013-04-09 13:13:00,81.0,67.0,30.18,ENE,69,2.0,7.0,63,0.00,,,0.00,,2013-04-09 17:13:00,
2013-04-09 13:23:00,80.0,68.0,30.17,East,91,1.0,4.0,66,0.00,,,0.00,,2013-04-09 17:23:00,
2013-04-09 13:32:00,80.0,67.0,30.17,East,91,1.0,6.0,65,0.00,,,0.00,,2013-04-09 17:32:00,
2013-04-09 13:42:00,80.0,67.0,30.17,East,91,1.0,6.0,65,0.00,,,0.00,,2013-04-09 17:42:00,
2013-04-09 13:54:00,80.0,68.0,30.17,ESE,111,1.0,3.0,66,0.00,,,0.00,,2013-04-09 17:54:00,
2013-04-09 14:02:00,79.0,66.0,30.16,East,83,1.0,4.0,64,0.00,,,0.00,,2013-04-09 18:02:00,
2013-04-09 14:13:00,79.0,66.0,30.16,East,83,1.0,4.0,64,0.00,,,0.00,,2013-04-09 18:13:00,
2013-04-09 14:20:00,81.0,67.0,30.16,East,92,2.0,4.0,63,0.00,,,0.00,,2013-04-09 18:20:00,
2013-04-09 14:23:00,81.0,67.0,30.16,ESE,105,1.0,5.0,63,0.00,,,0.00,,2013-04-09 18:23:00,
2013-04-09 14:33:00,81.0,67.0,30.17,East,92,1.0,5.0,62,0.00,,,0.00,,2013-04-09 18:33:00,
2013-04-09 14:43:00,81.0,67.0,30.17,East,92,1.0,5.0,62,0.00,,,0.00,,2013-04-09 18:43:00,
2013-04-09 14:53:00,81.0,67.0,30.16,East,92,2.0,4.0,63,0.00,,,0.00,,2013-04-09 18:53:00,
2013-04-09 15:03:00,81.0,67.0,30.16,East,92,2.0,4.0,63,0.00,,,0.00,,2013-04-09 19:03:00,
2013-04-09 15:12:00,81.0,67.0,30.16,East,92,2.0,4.0,63,0.00,,,0.00,,2013-04-09 19:12:00,
2013-04-09 15:33:00,80.0,66.0,30.15,East,89,1.0,4.0,63,0.00,,,0.00,,2013-04-09 19:33:00,
2013-04-09 15:42:00,80.0,66.0,30.15,East,89,1.0,4.0,63,0.00,,,0.00,,2013-04-09 19:42:00,
2013-04-09 15:53:00,81.0,65.0,30.14,ESE,112,2.0,5.0,59,0.00,,,0.00,,2013-04-09 19:53:00,
2013-04-09 16:02:00,81.0,66.0,30.14,East,89,1.0,3.0,60,0.00,,,0.00,,2013-04-09 20:02:00,
2013-04-09 16:12:00,80.0,64.0,30.13,ENE,77,1.0,3.0,59,0.00,,,0.00,,2013-04-09 20:12:00,
2013-04-09 16:22:00,80.0,64.0,30.13,ENE,77,1.0,3.0,59,0.00,,,0.00,,2013-04-09 20:22:00,
2013-04-09 16:33:00,79.0,63.0,30.13,East,90,1.0,3.0,58,0.00,,,0.00,,2013-04-09 20:33:00,
2013-04-09 16:43:00,79.0,63.0,30.13,East,90,1.0,3.0,58,0.00,,,0.00,,2013-04-09 20:43:00,
2013-04-09 16:53:00,82.0,64.0,30.13,East,81,0.0,3.0,54,0.00,,,0.00,,2013-04-09 20:53:00,
2013-04-09 17:02:00,83.0,64.0,30.13,ENE,71,1.0,3.0,52,0.00,,,0.00,,2013-04-09 21:02:00,
2013-04-09 17:13:00,83.0,64.0,30.13,ENE,71,1.0,3.0,52,0.00,,,0.00,,2013-04-09 21:13:00,
2013-04-09 17:22:00,83.0,64.0,30.13,ENE,71,1.0,3.0,52,0.00,,,0.00,,2013-04-09 21:22:00,
2013-04-09 17:33:00,78.0,63.0,30.14,ENE,72,0.0,3.0,60,0.00,,,0.00,,2013-04-09 21:33:00,
2013-04-09 17:42:00,78.0,63.0,30.14,ENE,72,0.0,3.0,60,0.00,,,0.00,,2013-04-09 21:42:00,
2013-04-09 17:53:00,78.0,62.0,30.13,East,87,1.0,6.0,58,0.00,,,0.00,,2013-04-09 21:53:00,
2013-04-09 18:03:00,80.0,63.0,30.13,ENE,70,1.0,5.0,57,0.00,,,0.00,,2013-04-09 22:03:00,
2013-04-09 18:13:00,81.0,63.0,30.13,ENE,67,1.0,3.0,55,0.00,,,0.00,,2013-04-09 22:13:00,
2013-04-09 18:23:00,81.0,63.0,30.13,ENE,67,1.0,3.0,55,0.00,,,0.00,,2013-04-09 22:23:00,
2013-04-09 18:33:00,81.0,63.0,30.13,East,90,3.0,4.0,55,0.00,,,0.00,,2013-04-09 22:33:00,
2013-04-09 18:42:00,81.0,63.0,30.13,East,90,3.0,4.0,55,0.00,,,0.00,,2013-04-09 22:42:00,
2013-04-09 18:54:00,78.0,62.0,30.14,East,90,0.0,3.0,58,0.00,,,0.00,,2013-04-09 22:54:00,
2013-04-09 19:03:00,79.0,62.0,30.13,East,98,0.0,2.0,57,0.00,,,0.00,,2013-04-09 23:03:00,
2013-04-09 19:12:00,77.0,62.0,30.14,East,90,0.0,0.0,60,0.00,,,0.00,,2013-04-09 23:12:00,
2013-04-09 19:23:00,77.0,62.0,30.14,East,90,0.0,0.0,60,0.00,,,0.00,,2013-04-09 23:23:00,
2013-04-09 19:32:00,74.0,61.0,30.14,East,90,0.0,0.0,65,0.00,,,0.00,,2013-04-09 23:32:00,
2013-04-09 19:42:00,74.0,61.0,30.14,East,90,0.0,0.0,65,0.00,,,0.00,,2013-04-09 23:42:00,
2013-04-09 19:53:00,73.0,61.0,30.14,East,87,0.0,3.0,67,0.00,,,0.00,,2013-04-09 23:53:00,
2013-04-09 20:03:00,73.0,61.0,30.14,East,87,0.0,3.0,67,0.00,,,0.00,,2013-04-10 00:03:00,
2013-04-09 20:12:00,73.0,61.0,30.14,East,87,0.0,3.0,67,0.00,,,0.00,,2013-04-10 00:12:00,
2013-04-09 20:23:00,71.0,62.0,30.13,East,90,0.0,0.0,72,0.00,,,0.00,,2013-04-10 00:23:00,
2013-04-09 20:33:00,70.0,61.0,30.14,East,90,0.0,0.0,74,0.00,,,0.00,,2013-04-10 00:33:00,
2013-04-09 20:42:00,70.0,61.0,30.14,East,90,0.0,0.0,74,0.00,,,0.00,,2013-04-10 00:42:00,
2013-04-09 20:53:00,69.0,61.0,30.13,East,90,0.0,0.0,76,0.00,,,0.00,,2013-04-10 00:53:00,
2013-04-09 21:02:00,69.0,62.0,30.14,East,90,0.0,0.0,78,0.00,,,0.00,,2013-04-10 01:02:00,
2013-04-09 21:12:00,68.0,62.0,30.14,East,90,0.0,0.0,80,0.00,,,0.00,,2013-04-10 01:12:00,
2013-04-09 21:23:00,68.0,62.0,30.14,East,90,0.0,0.0,80,0.00,,,0.00,,2013-04-10 01:23:00,
2013-04-09 21:32:00,67.0,61.0,30.15,East,90,0.0,0.0,82,0.00,,,0.00,,2013-04-10 01:32:00,
2013-04-09 21:42:00,67.0,61.0,30.15,East,90,0.0,0.0,82,0.00,,,0.00,,2013-04-10 01:42:00,
2013-04-09 21:53:00,67.0,62.0,30.15,East,90,0.0,0.0,84,0.00,,,0.00,,2013-04-10 01:53:00,
2013-04-09 22:02:00,66.0,62.0,30.15,East,90,0.0,0.0,86,0.00,,,0.00,,2013-04-10 02:02:00,
2013-04-09 22:13:00,66.0,62.0,30.15,East,90,0.0,0.0,86,0.00,,,0.00,,2013-04-10 02:13:00,
2013-04-09 22:22:00,66.0,62.0,30.15,East,90,0.0,0.0,87,0.00,,,0.00,,2013-04-10 02:22:00,
2013-04-09 22:32:00,65.0,61.0,30.15,East,90,0.0,0.0,88,0.00,,,0.00,,2013-04-10 02:32:00,
2013-04-09 22:43:00,65.0,61.0,30.15,East,90,0.0,0.0,88,0.00,,,0.00,,2013-04-10 02:43:00,
2013-04-09 22:53:00,65.0,62.0,30.14,East,90,0.0,0.0,89,0.00,,,0.00,,2013-04-10 02:53:00,
2013-04-09 23:03:00,64.0,61.0,30.14,East,90,0.0,0.0,90,0.00,,,0.00,,2013-04-10 03:03:00,
2013-04-09 23:12:00,64.0,61.0,30.14,East,90,0.0,0.0,90,0.00,,,0.00,,2013-04-10 03:12:00,
2013-04-09 23:22:00,63.0,60.0,30.14,East,90,0.0,0.0,91,0.00,,,0.00,,2013-04-10 03:22:00,
2013-04-09 23:33:00,63.0,60.0,30.14,East,90,0.0,0.0,91,0.00,,,0.00,,2013-04-10 03:33:00,
2013-04-09 23:43:00,63.0,60.0,30.14,East,90,0.0,0.0,91,0.00,,,0.00,,2013-04-10 03:43:00,
2013-04-09 23:53:00,62.0,60.0,30.14,East,90,0.0,0.0,92,0.00,,,0.00,,2013-04-10 03:53:00,